Time,TemperatureF,DewpointF,PressureIn,WindDirection,WindDirectionDegrees,WindSpeedMPH,WindSpeedGustMPH,Humidity,HourlyPrecipIn,Conditions,Clouds,dailyrainin,SoftwareType,DateUTC
2013-09-01 00:00:00,59.0,55.4,29.93,WNW,300,0.0,1.0,88,0.00,,,0.00,Wunderground v.1.15,2013-09-01 07:00:00,
2013-09-01 00:10:00,58.9,55.4,29.93,WSW,254,0.0,2.0,88,0.00,,,0.00,Wunderground v.1.15,2013-09-01 07:10:00,
2013-09-01 00:15:00,58.8,55.3,29.93,WSW,254,0.0,2.0,88,0.00,,,0.00,Wunderground v.1.15,2013-09-01 07:15:00,
2013-09-01 00:20:00,58.7,55.2,29.93,WSW,254,0.0,0.0,88,0.00,,,0.00,Wunderground v.1.15,2013-09-01 07:20:00,
2013-09-01 00:25:00,58.6,55.1,29.93,NW,322,0.0,1.0,88,0.00,,,0.00,Wunderground v.1.15,2013-09-01 07:25:00,
2013-09-01 00:35:00,58.4,54.9,29.93,NW,321,0.0,2.0,88,0.00,,,0.00,Wunderground v.1.15,2013-09-01 07:35:00,
2013-09-01 00:40:00,58.3,54.8,29.93,NW,321,0.0,0.0,88,0.00,,,0.00,Wunderground v.1.15,2013-09-01 07:40:00,
2013-09-01 00:45:00,58.3,54.8,29.93,NW,321,0.0,1.0,88,0.00,,,0.00,Wunderground v.1.15,2013-09-01 07:45:00,
2013-09-01 00:50:00,58.3,54.8,29.93,NW,321,0.0,1.0,88,0.00,,,0.00,Wunderground v.1.15,2013-09-01 07:50:00,
2013-09-01 00:55:00,58.4,54.9,29.94,NW,321,0.0,1.0,88,0.00,,,0.00,Wunderground v.1.15,2013-09-01 07:55:00,
2013-09-01 01:00:00,58.5,55.3,29.94,NW,321,0.0,1.0,89,0.00,,,0.00,Wunderground v.1.15,2013-09-01 08:00:00,
2013-09-01 01:05:00,58.5,55.3,29.93,NW,321,0.0,1.0,89,0.00,,,0.00,Wunderground v.1.15,2013-09-01 08:05:00,
2013-09-01 01:15:00,58.4,55.2,29.93,NW,322,0.0,1.0,89,0.00,,,0.00,Wunderground v.1.15,2013-09-01 08:15:00,
2013-09-01 01:20:00,58.2,55.3,29.93,NW,322,0.0,1.0,90,0.00,,,0.00,Wunderground v.1.15,2013-09-01 08:20:00,
2013-09-01 01:25:00,58.1,55.2,29.93,WNW,293,0.0,1.0,90,0.00,,,0.00,Wunderground v.1.15,2013-09-01 08:25:00,
2013-09-01 01:30:00,58.0,55.1,29.93,WNW,300,0.0,1.0,90,0.00,,,0.00,Wunderground v.1.15,2013-09-01 08:30:00,
2013-09-01 01:40:00,57.8,54.9,29.93,NW,304,0.0,2.0,90,0.00,,,0.00,Wunderground v.1.15,2013-09-01 08:40:00,
2013-09-01 01:45:00,57.8,54.9,29.93,SSE,161,0.0,3.0,90,0.00,,,0.00,Wunderground v.1.15,2013-09-01 08:45:00,
2013-09-01 01:50:00,57.7,54.8,29.93,SSE,153,0.0,3.0,90,0.00,,,0.00,Wunderground v.1.15,2013-09-01 08:50:00,
2013-09-01 01:55:00,57.7,54.8,29.93,ESE,123,0.0,3.0,90,0.00,,,0.00,Wunderground v.1.15,2013-09-01 08:55:00,
2013-09-01 02:00:00,57.8,54.6,29.93,NW,305,0.0,2.0,89,0.00,,,0.00,Wunderground v.1.15,2013-09-01 09:00:00,
2013-09-01 02:10:00,57.9,54.7,29.93,SW,221,0.0,2.0,89,0.00,,,0.00,Wunderground v.1.15,2013-09-01 09:10:00,
2013-09-01 02:15:00,57.9,54.7,29.93,NE,55,0.0,2.0,89,0.00,,,0.00,Wunderground v.1.15,2013-09-01 09:15:00,
2013-09-01 02:20:00,57.9,54.7,29.92,SSW,209,0.0,5.0,89,0.00,,,0.00,Wunderground v.1.15,2013-09-01 09:20:00,
2013-09-01 02:30:00,57.8,54.3,29.92,SW,218,0.0,2.0,88,0.00,,,0.00,Wunderground v.1.15,2013-09-01 09:30:00,
2013-09-01 02:35:00,57.9,54.4,29.93,NNW,336,0.0,4.0,88,0.00,,,0.00,Wunderground v.1.15,2013-09-01 09:35:00,
2013-09-01 02:45:00,57.8,54.3,29.93,SE,128,0.0,2.0,88,0.00,,,0.00,Wunderground v.1.15,2013-09-01 09:45:00,
2013-09-01 02:50:00,57.8,54.6,29.93,SE,128,0.0,1.0,89,0.00,,,0.00,Wunderground v.1.15,2013-09-01 09:50:00,
2013-09-01 02:55:00,57.7,54.5,29.93,SE,128,0.0,1.0,89,0.00,,,0.00,Wunderground v.1.15,2013-09-01 09:55:00,
2013-09-01 03:05:00,57.6,54.4,29.93,SE,128,0.0,0.0,89,0.00,,,0.00,Wunderground v.1.15,2013-09-01 10:05:00,
2013-09-01 03:10:00,57.6,54.4,29.93,ESE,116,0.0,1.0,89,0.00,,,0.00,Wunderground v.1.15,2013-09-01 10:10:00,
2013-09-01 03:15:00,57.6,54.4,29.93,ESE,116,0.0,1.0,89,0.00,,,0.00,Wunderground v.1.15,2013-09-01 10:15:00,
2013-09-01 03:20:00,57.6,54.4,29.93,ESE,114,0.0,1.0,89,0.00,,,0.00,Wunderground v.1.15,2013-09-01 10:20:00,
2013-09-01 03:30:00,57.5,54.3,29.93,ESE,114,0.0,0.0,89,0.00,,,0.00,Wunderground v.1.15,2013-09-01 10:30:00,
2013-09-01 03:35:00,57.5,54.6,29.93,ESE,114,0.0,0.0,90,0.00,,,0.00,Wunderground v.1.15,2013-09-01 10:35:00,
2013-09-01 03:40:00,57.4,54.5,29.93,ESE,114,0.0,1.0,90,0.00,,,0.00,Wunderground v.1.15,2013-09-01 10:40:00,
2013-09-01 03:45:00,57.4,54.5,29.93,ESE,114,0.0,1.0,90,0.00,,,0.00,Wunderground v.1.15,2013-09-01 10:45:00,
2013-09-01 03:55:00,57.3,54.4,29.92,ESE,114,0.0,0.0,90,0.00,,,0.00,Wunderground v.1.15,2013-09-01 10:55:00,
2013-09-01 04:00:00,57.3,54.7,29.92,ESE,114,0.0,0.0,91,0.00,,,0.00,Wunderground v.1.15,2013-09-01 11:00:00,
2013-09-01 04:05:00,57.2,54.3,29.92,ESE,114,0.0,0.0,90,0.00,,,0.00,Wunderground v.1.15,2013-09-01 11:05:00,
2013-09-01 04:10:00,57.2,54.6,29.92,ESE,114,0.0,0.0,91,0.00,,,0.00,Wunderground v.1.15,2013-09-01 11:10:00,
2013-09-01 04:20:00,57.1,54.5,29.92,ESE,114,0.0,0.0,91,0.00,,,0.00,Wunderground v.1.15,2013-09-01 11:20:00,
2013-09-01 04:25:00,57.1,54.5,29.92,ESE,114,0.0,0.0,91,0.00,,,0.00,Wunderground v.1.15,2013-09-01 11:25:00,
2013-09-01 04:30:00,57.2,54.6,29.92,ESE,114,0.0,0.0,91,0.00,,,0.00,Wunderground v.1.15,2013-09-01 11:30:00,
2013-09-01 04:35:00,57.2,54.6,29.92,ESE,114,0.0,0.0,91,0.00,,,0.00,Wunderground v.1.15,2013-09-01 11:35:00,
2013-09-01 04:40:00,57.1,54.5,29.92,ESE,114,0.0,0.0,91,0.00,,,0.00,Wunderground v.1.15,2013-09-01 11:40:00,
2013-09-01 04:45:00,57.2,54.6,29.92,ESE,114,0.0,0.0,91,0.00,,,0.00,Wunderground v.1.15,2013-09-01 11:45:00,
2013-09-01 04:55:00,57.1,54.5,29.92,ESE,114,0.0,1.0,91,0.00,,,0.00,Wunderground v.1.15,2013-09-01 11:55:00,
2013-09-01 05:00:00,57.0,54.4,29.92,ESE,114,0.0,0.0,91,0.00,,,0.00,Wunderground v.1.15,2013-09-01 12:00:00,
2013-09-01 05:05:00,56.9,54.3,29.92,ESE,114,0.0,0.0,91,0.00,,,0.00,Wunderground v.1.15,2013-09-01 12:05:00,
2013-09-01 05:10:00,56.8,54.2,29.92,ESE,114,0.0,0.0,91,0.00,,,0.00,Wunderground v.1.15,2013-09-01 12:10:00,
2013-09-01 05:15:00,56.7,54.1,29.92,ESE,114,0.0,0.0,91,0.00,,,0.00,Wunderground v.1.15,2013-09-01 12:15:00,
2013-09-01 05:25:00,56.5,54.2,29.92,ESE,114,0.0,0.0,92,0.00,,,0.00,Wunderground v.1.15,2013-09-01 12:25:00,
2013-09-01 05:30:00,56.5,54.2,29.92,ESE,114,0.0,0.0,92,0.00,,,0.00,Wunderground v.1.15,2013-09-01 12:30:00,
2013-09-01 05:35:00,56.4,54.1,29.92,ESE,114,0.0,1.0,92,0.00,,,0.00,Wunderground v.1.15,2013-09-01 12:35:00,
2013-09-01 05:40:00,56.4,54.1,29.92,ESE,111,0.0,2.0,92,0.00,,,0.00,Wunderground v.1.15,2013-09-01 12:40:00,
2013-09-01 05:45:00,56.5,53.9,29.92,ESE,109,0.0,2.0,91,0.00,,,0.00,Wunderground v.1.15,2013-09-01 12:45:00,
2013-09-01 05:55:00,56.4,53.8,29.92,ESE,109,0.0,0.0,91,0.00,,,0.00,Wunderground v.1.15,2013-09-01 12:55:00,
2013-09-01 06:00:00,56.4,53.8,29.92,ESE,109,0.0,0.0,91,0.00,,,0.00,Wunderground v.1.15,2013-09-01 13:00:00,
2013-09-01 06:05:00,56.3,54.0,29.92,ESE,109,0.0,0.0,92,0.00,,,0.00,Wunderground v.1.15,2013-09-01 13:05:00,
2013-09-01 06:15:00,56.2,53.6,29.92,ESE,109,0.0,0.0,91,0.00,,,0.00,Wunderground v.1.15,2013-09-01 13:15:00,
2013-09-01 06:20:00,56.2,53.6,29.92,ESE,109,0.0,0.0,91,0.00,,,0.00,Wunderground v.1.15,2013-09-01 13:20:00,
2013-09-01 06:25:00,56.1,53.5,29.93,ESE,109,0.0,0.0,91,0.00,,,0.00,Wunderground v.1.15,2013-09-01 13:25:00,
2013-09-01 06:30:00,56.0,53.7,29.93,ESE,109,0.0,0.0,92,0.00,,,0.00,Wunderground v.1.15,2013-09-01 13:30:00,
2013-09-01 06:40:00,56.0,53.7,29.93,ESE,109,0.0,0.0,92,0.00,,,0.00,Wunderground v.1.15,2013-09-01 13:40:00,
2013-09-01 06:45:00,56.0,53.7,29.93,ESE,109,0.0,0.0,92,0.00,,,0.00,Wunderground v.1.15,2013-09-01 13:45:00,
2013-09-01 06:50:00,56.1,53.8,29.93,ESE,109,0.0,0.0,92,0.00,,,0.00,Wunderground v.1.15,2013-09-01 13:50:00,
2013-09-01 07:00:00,56.4,54.1,29.94,ESE,109,0.0,0.0,92,0.00,,,0.00,Wunderground v.1.15,2013-09-01 14:00:00,
2013-09-01 07:05:00,56.5,54.2,29.94,ESE,109,0.0,0.0,92,0.00,,,0.00,Wunderground v.1.15,2013-09-01 14:05:00,
2013-09-01 07:10:00,56.7,54.1,29.94,ESE,109,0.0,1.0,91,0.00,,,0.00,Wunderground v.1.15,2013-09-01 14:10:00,
2013-09-01 07:20:00,56.9,54.3,29.94,ESE,109,0.0,1.0,91,0.00,,,0.00,Wunderground v.1.15,2013-09-01 14:20:00,
2013-09-01 07:30:00,57.0,54.1,29.95,ESE,109,0.0,0.0,90,0.00,,,0.00,Wunderground v.1.15,2013-09-01 14:30:00,
2013-09-01 07:35:00,57.1,54.5,29.95,ESE,109,0.0,0.0,91,0.00,,,0.00,Wunderground v.1.15,2013-09-01 14:35:00,
2013-09-01 07:45:00,57.4,54.5,29.95,ESE,109,0.0,0.0,90,0.00,,,0.00,Wunderground v.1.15,2013-09-01 14:45:00,
2013-09-01 07:50:00,57.6,54.4,29.95,ESE,110,0.0,1.0,89,0.00,,,0.00,Wunderground v.1.15,2013-09-01 14:50:00,
2013-09-01 07:55:00,57.8,54.6,29.94,ESE,110,0.0,1.0,89,0.00,,,0.00,Wunderground v.1.15,2013-09-01 14:55:00,
2013-09-01 08:00:00,57.9,54.7,29.95,ESE,110,0.0,0.0,89,0.00,,,0.00,Wunderground v.1.15,2013-09-01 15:00:00,
2013-09-01 08:10:00,58.2,55.0,29.95,ESE,110,0.0,0.0,89,0.00,,,0.00,Wunderground v.1.15,2013-09-01 15:10:00,
2013-09-01 08:15:00,58.5,55.3,29.95,ESE,110,0.0,0.0,89,0.00,,,0.00,Wunderground v.1.15,2013-09-01 15:15:00,
2013-09-01 08:25:00,59.2,55.3,29.95,ESE,110,0.0,0.0,87,0.00,,,0.00,Wunderground v.1.15,2013-09-01 15:25:00,
2013-09-01 08:30:00,59.6,55.4,29.94,ESE,110,0.0,0.0,86,0.00,,,0.00,Wunderground v.1.15,2013-09-01 15:30:00,
2013-09-01 08:35:00,60.2,56.0,29.94,ESE,110,0.0,0.0,86,0.00,,,0.00,Wunderground v.1.15,2013-09-01 15:35:00,
2013-09-01 08:40:00,60.8,56.3,29.94,ESE,110,0.0,0.0,85,0.00,,,0.00,Wunderground v.1.15,2013-09-01 15:40:00,
2013-09-01 08:45:00,61.6,56.4,29.94,ESE,110,0.0,0.0,83,0.00,,,0.00,Wunderground v.1.15,2013-09-01 15:45:00,
2013-09-01 08:55:00,63.1,56.1,29.94,SSW,207,0.0,2.0,78,0.00,,,0.00,Wunderground v.1.15,2013-09-01 15:55:00,
2013-09-01 09:00:00,63.8,56.1,29.94,SSW,207,0.0,2.0,76,0.00,,,0.00,Wunderground v.1.15,2013-09-01 16:00:00,
2013-09-01 09:10:00,64.8,56.7,29.94,SSW,205,0.0,1.0,75,0.00,,,0.00,Wunderground v.1.15,2013-09-01 16:10:00,
2013-09-01 09:15:00,65.6,56.7,29.95,SSW,205,0.0,1.0,73,0.00,,,0.00,Wunderground v.1.15,2013-09-01 16:15:00,
2013-09-01 09:20:00,66.5,56.8,29.95,SSW,205,0.0,1.0,71,0.00,,,0.00,Wunderground v.1.15,2013-09-01 16:20:00,
2013-09-01 09:25:00,67.3,56.8,29.95,SSW,207,0.0,1.0,69,0.00,,,0.00,Wunderground v.1.15,2013-09-01 16:25:00,
2013-09-01 09:30:00,67.9,56.9,29.95,SSW,205,0.0,2.0,68,0.00,,,0.00,Wunderground v.1.15,2013-09-01 16:30:00,
2013-09-01 09:35:00,68.7,56.9,29.95,SSW,206,0.0,2.0,66,0.00,,,0.00,Wunderground v.1.15,2013-09-01 16:35:00,
2013-09-01 09:40:00,69.7,56.5,29.95,SSW,205,0.0,1.0,63,0.00,,,0.00,Wunderground v.1.15,2013-09-01 16:40:00,
2013-09-01 09:45:00,70.3,56.7,29.95,WSW,238,0.0,3.0,62,0.00,,,0.00,Wunderground v.1.15,2013-09-01 16:45:00,
2013-09-01 09:50:00,70.8,56.7,29.95,WSW,253,1.0,1.0,61,0.00,,,0.00,Wunderground v.1.15,2013-09-01 16:50:00,
2013-09-01 09:55:00,71.4,57.2,29.95,WSW,237,0.0,3.0,61,0.00,,,0.00,Wunderground v.1.15,2013-09-01 16:55:00,
2013-09-01 10:00:00,71.9,54.3,29.95,NW,321,1.0,4.0,54,0.00,,,0.00,Wunderground v.1.15,2013-09-01 17:00:00,
2013-09-01 10:10:00,71.6,54.6,29.95,WNW,300,1.0,3.0,55,0.00,,,0.00,Wunderground v.1.15,2013-09-01 17:10:00,
2013-09-01 10:15:00,71.9,54.9,29.95,West,279,1.0,6.0,55,0.00,,,0.00,Wunderground v.1.15,2013-09-01 17:15:00,
2013-09-01 10:20:00,72.3,55.7,29.94,NNW,334,1.0,4.0,56,0.00,,,0.00,Wunderground v.1.15,2013-09-01 17:20:00,
2013-09-01 10:25:00,72.2,55.1,29.94,NNW,338,1.0,8.0,55,0.00,,,0.00,Wunderground v.1.15,2013-09-01 17:25:00,
2013-09-01 10:35:00,72.2,54.6,29.95,NW,317,2.0,10.0,54,0.00,,,0.00,Wunderground v.1.15,2013-09-01 17:35:00,
2013-09-01 10:40:00,72.7,54.6,29.95,SE,126,1.0,6.0,53,0.00,,,0.00,Wunderground v.1.15,2013-09-01 17:40:00,
2013-09-01 10:45:00,72.6,54.0,29.95,NW,321,1.0,6.0,52,0.00,,,0.00,Wunderground v.1.15,2013-09-01 17:45:00,
2013-09-01 10:55:00,73.0,54.3,29.94,SW,234,0.0,4.0,52,0.00,,,0.00,Wunderground v.1.15,2013-09-01 17:55:00,
2013-09-01 11:00:00,73.3,54.1,29.94,NNW,336,1.0,5.0,51,0.00,,,0.00,Wunderground v.1.15,2013-09-01 18:00:00,
2013-09-01 11:05:00,72.9,54.2,29.94,WNW,302,2.0,8.0,52,0.00,,,0.00,Wunderground v.1.15,2013-09-01 18:05:00,
2013-09-01 11:10:00,72.6,54.5,29.95,North,355,2.0,2.0,53,0.00,,,0.00,Wunderground v.1.15,2013-09-01 18:10:00,
2013-09-01 11:20:00,73.1,55.5,29.94,WSW,256,2.0,2.0,54,0.00,,,0.00,Wunderground v.1.15,2013-09-01 18:20:00,
2013-09-01 11:25:00,73.7,54.4,29.94,WSW,250,2.0,6.0,51,0.00,,,0.00,Wunderground v.1.15,2013-09-01 18:25:00,
2013-09-01 11:30:00,74.6,55.3,29.94,WNW,294,2.0,2.0,51,0.00,,,0.00,Wunderground v.1.15,2013-09-01 18:30:00,
2013-09-01 11:35:00,74.9,55.0,29.94,WNW,303,1.0,7.0,50,0.00,,,0.00,Wunderground v.1.15,2013-09-01 18:35:00,
2013-09-01 11:45:00,76.1,54.4,29.93,WNW,282,2.0,5.0,47,0.00,,,0.00,Wunderground v.1.15,2013-09-01 18:45:00,
2013-09-01 11:50:00,76.0,54.9,29.94,ESE,120,3.0,3.0,48,0.00,,,0.00,Wunderground v.1.15,2013-09-01 18:50:00,
2013-09-01 11:55:00,76.4,54.7,29.93,WSW,242,3.0,8.0,47,0.00,,,0.00,Wunderground v.1.15,2013-09-01 18:55:00,
2013-09-01 12:00:00,76.6,54.9,29.94,WSW,258,1.0,5.0,47,0.00,,,0.00,Wunderground v.1.15,2013-09-01 19:00:00,
2013-09-01 12:05:00,77.3,54.9,29.93,SSE,147,1.0,5.0,46,0.00,,,0.00,Wunderground v.1.15,2013-09-01 19:05:00,
2013-09-01 12:10:00,77.6,54.6,29.94,NW,324,2.0,5.0,45,0.00,,,0.00,Wunderground v.1.15,2013-09-01 19:10:00,
2013-09-01 12:15:00,77.0,54.0,29.93,NW,309,3.0,10.0,45,0.00,,,0.00,Wunderground v.1.15,2013-09-01 19:15:00,
2013-09-01 12:20:00,76.9,53.9,29.93,WSW,258,3.0,3.0,45,0.00,,,0.00,Wunderground v.1.15,2013-09-01 19:20:00,
2013-09-01 12:30:00,77.1,55.3,29.93,South,191,2.0,2.0,47,0.00,,,0.00,Wunderground v.1.15,2013-09-01 19:30:00,
2013-09-01 12:35:00,78.0,55.5,29.93,South,175,1.0,6.0,46,0.00,,,0.00,Wunderground v.1.15,2013-09-01 19:35:00,
2013-09-01 12:40:00,78.3,55.2,29.93,SW,228,2.0,5.0,45,0.00,,,0.00,Wunderground v.1.15,2013-09-01 19:40:00,
2013-09-01 12:45:00,78.6,54.9,29.92,WNW,301,2.0,7.0,44,0.00,,,0.00,Wunderground v.1.15,2013-09-01 19:45:00,
2013-09-01 12:50:00,78.3,54.6,29.92,WSW,258,2.0,6.0,44,0.00,,,0.00,Wunderground v.1.15,2013-09-01 19:50:00,
2013-09-01 13:00:00,77.5,55.1,29.92,WNW,284,3.0,13.0,46,0.00,,,0.00,Wunderground v.1.15,2013-09-01 20:00:00,
2013-09-01 13:05:00,78.0,56.1,29.92,West,281,2.0,13.0,47,0.00,,,0.00,Wunderground v.1.15,2013-09-01 20:05:00,
2013-09-01 13:15:00,78.3,55.2,29.92,NE,39,2.0,10.0,45,0.00,,,0.00,Wunderground v.1.15,2013-09-01 20:15:00,
2013-09-01 13:20:00,78.6,56.1,29.92,SSE,168,2.0,2.0,46,0.00,,,0.00,Wunderground v.1.15,2013-09-01 20:20:00,
2013-09-01 13:25:00,79.3,56.1,29.92,WSW,237,1.0,5.0,45,0.00,,,0.00,Wunderground v.1.15,2013-09-01 20:25:00,
2013-09-01 13:30:00,79.0,55.2,29.92,WNW,282,2.0,9.0,44,0.00,,,0.00,Wunderground v.1.15,2013-09-01 20:30:00,
2013-09-01 13:35:00,78.4,55.3,29.92,West,261,3.0,10.0,45,0.00,,,0.00,Wunderground v.1.15,2013-09-01 20:35:00,
2013-09-01 13:45:00,78.9,55.8,29.92,West,279,3.0,5.0,45,0.00,,,0.00,Wunderground v.1.15,2013-09-01 20:45:00,
2013-09-01 13:50:00,79.0,55.8,29.92,WSW,255,2.0,2.0,45,0.00,,,0.00,Wunderground v.1.15,2013-09-01 20:50:00,
2013-09-01 13:55:00,79.6,56.4,29.91,WNW,282,2.0,5.0,45,0.00,,,0.00,Wunderground v.1.15,2013-09-01 20:55:00,
2013-09-01 14:00:00,80.3,55.8,29.91,NNW,334,1.0,8.0,43,0.00,,,0.00,Wunderground v.1.15,2013-09-01 21:00:00,
2013-09-01 14:10:00,80.3,55.8,29.91,WNW,298,3.0,3.0,43,0.00,,,0.00,Wunderground v.1.15,2013-09-01 21:10:00,
2013-09-01 14:15:00,80.7,56.1,29.91,West,273,2.0,7.0,43,0.00,,,0.00,Wunderground v.1.15,2013-09-01 21:15:00,
2013-09-01 14:20:00,81.6,55.6,29.91,WNW,287,2.0,5.0,41,0.00,,,0.00,Wunderground v.1.15,2013-09-01 21:20:00,
2013-09-01 14:25:00,82.1,56.1,29.91,WSW,254,1.0,7.0,41,0.00,,,0.00,Wunderground v.1.15,2013-09-01 21:25:00,
2013-09-01 14:30:00,82.0,55.3,29.91,WSW,238,2.0,9.0,40,0.00,,,0.00,Wunderground v.1.15,2013-09-01 21:30:00,
2013-09-01 14:35:00,81.9,54.5,29.91,WSW,257,2.0,9.0,39,0.00,,,0.00,Wunderground v.1.15,2013-09-01 21:35:00,
2013-09-01 14:40:00,81.4,54.8,29.90,WNW,299,2.0,2.0,40,0.00,,,0.00,Wunderground v.1.15,2013-09-01 21:40:00,
2013-09-01 14:45:00,80.9,55.0,29.90,West,281,2.0,4.0,41,0.00,,,0.00,Wunderground v.1.15,2013-09-01 21:45:00,
2013-09-01 14:50:00,81.4,55.4,29.90,West,279,1.0,1.0,41,0.00,,,0.00,Wunderground v.1.15,2013-09-01 21:50:00,
2013-09-01 14:55:00,82.4,55.0,29.90,West,275,1.0,2.0,39,0.00,,,0.00,Wunderground v.1.15,2013-09-01 21:55:00,
2013-09-01 15:05:00,82.1,55.4,29.90,SW,229,2.0,8.0,40,0.00,,,0.00,Wunderground v.1.15,2013-09-01 22:05:00,
2013-09-01 15:10:00,82.4,55.7,29.90,SW,227,2.0,5.0,40,0.00,,,0.00,Wunderground v.1.15,2013-09-01 22:10:00,
2013-09-01 15:15:00,82.1,55.4,29.89,WSW,243,2.0,8.0,40,0.00,,,0.00,Wunderground v.1.15,2013-09-01 22:15:00,
2013-09-01 15:20:00,81.7,55.7,29.89,West,272,2.0,8.0,41,0.00,,,0.00,Wunderground v.1.15,2013-09-01 22:20:00,
2013-09-01 15:25:00,81.7,56.4,29.90,SSW,206,2.0,8.0,42,0.00,,,0.00,Wunderground v.1.15,2013-09-01 22:25:00,
2013-09-01 15:35:00,81.6,55.6,29.89,WNW,284,2.0,10.0,41,0.00,,,0.00,Wunderground v.1.15,2013-09-01 22:35:00,
2013-09-01 15:40:00,81.6,56.3,29.89,West,281,3.0,3.0,42,0.00,,,0.00,Wunderground v.1.15,2013-09-01 22:40:00,
2013-09-01 15:45:00,81.4,55.4,29.89,NNW,330,2.0,4.0,41,0.00,,,0.00,Wunderground v.1.15,2013-09-01 22:45:00,
2013-09-01 15:50:00,80.2,55.0,29.89,NW,311,3.0,3.0,42,0.00,,,0.00,Wunderground v.1.15,2013-09-01 22:50:00,
2013-09-01 16:00:00,78.6,55.5,29.89,West,279,2.0,10.0,45,0.00,,,0.00,Wunderground v.1.15,2013-09-01 23:00:00,
2013-09-01 16:05:00,78.0,56.1,29.89,WSW,249,2.0,10.0,47,0.00,,,0.00,Wunderground v.1.15,2013-09-01 23:05:00,
2013-09-01 16:10:00,77.8,56.0,29.89,WNW,297,1.0,1.0,47,0.00,,,0.00,Wunderground v.1.15,2013-09-01 23:10:00,
2013-09-01 16:15:00,77.7,55.9,29.88,West,267,1.0,5.0,47,0.00,,,0.00,Wunderground v.1.15,2013-09-01 23:15:00,
2013-09-01 16:20:00,77.6,55.8,29.89,NW,304,1.0,4.0,47,0.00,,,0.00,Wunderground v.1.15,2013-09-01 23:20:00,
2013-09-01 16:30:00,78.0,57.3,29.89,West,275,1.0,10.0,49,0.00,,,0.00,Wunderground v.1.15,2013-09-01 23:30:00,
2013-09-01 16:35:00,78.0,57.3,29.89,South,184,1.0,10.0,49,0.00,,,0.00,Wunderground v.1.15,2013-09-01 23:35:00,
2013-09-01 16:40:00,78.4,57.1,29.89,WSW,242,1.0,1.0,48,0.00,,,0.00,Wunderground v.1.15,2013-09-01 23:40:00,
2013-09-01 16:45:00,78.5,57.2,29.88,WNW,301,1.0,5.0,48,0.00,,,0.00,Wunderground v.1.15,2013-09-01 23:45:00,
2013-09-01 16:50:00,78.4,57.1,29.88,SW,214,1.0,2.0,48,0.00,,,0.00,Wunderground v.1.15,2013-09-01 23:50:00,
2013-09-01 17:00:00,76.6,57.7,29.89,WNW,282,1.0,5.0,52,0.00,,,0.00,Wunderground v.1.15,2013-09-02 00:00:00,
2013-09-01 17:05:00,75.6,57.3,29.89,WSW,257,1.0,5.0,53,0.00,,,0.00,Wunderground v.1.15,2013-09-02 00:05:00,
2013-09-01 17:10:00,74.4,57.7,29.89,WSW,256,1.0,4.0,56,0.00,,,0.00,Wunderground v.1.15,2013-09-02 00:10:00,
2013-09-01 17:15:00,73.1,57.4,29.89,WNW,282,1.0,4.0,58,0.00,,,0.00,Wunderground v.1.15,2013-09-02 00:15:00,
2013-09-01 17:25:00,72.0,57.4,29.89,WSW,254,0.0,4.0,60,0.00,,,0.00,Wunderground v.1.15,2013-09-02 00:25:00,
2013-09-01 17:30:00,71.6,57.4,29.89,NW,306,0.0,2.0,61,0.00,,,0.00,Wunderground v.1.15,2013-09-02 00:30:00,
2013-09-01 17:40:00,71.1,57.4,29.89,West,259,0.0,5.0,62,0.00,,,0.00,Wunderground v.1.15,2013-09-02 00:40:00,
2013-09-01 17:45:00,71.0,57.8,29.89,West,273,0.0,5.0,63,0.00,,,0.00,Wunderground v.1.15,2013-09-02 00:45:00,
2013-09-01 17:50:00,70.7,57.9,29.89,North,350,0.0,3.0,64,0.00,,,0.00,Wunderground v.1.15,2013-09-02 00:50:00,
2013-09-01 18:00:00,70.1,58.2,29.89,West,260,0.0,3.0,66,0.00,,,0.00,Wunderground v.1.15,2013-09-02 01:00:00,
2013-09-01 18:05:00,70.0,58.1,29.89,West,266,0.0,3.0,66,0.00,,,0.00,Wunderground v.1.15,2013-09-02 01:05:00,
2013-09-01 18:10:00,69.8,58.3,29.89,WSW,254,1.0,1.0,67,0.00,,,0.00,Wunderground v.1.15,2013-09-02 01:10:00,
2013-09-01 18:15:00,69.7,58.3,29.89,West,263,1.0,3.0,67,0.00,,,0.00,Wunderground v.1.15,2013-09-02 01:15:00,
2013-09-01 18:25:00,69.3,58.3,29.89,West,263,0.0,4.0,68,0.00,,,0.00,Wunderground v.1.15,2013-09-02 01:25:00,
2013-09-01 18:30:00,69.2,58.6,29.89,West,259,0.0,1.0,69,0.00,,,0.00,Wunderground v.1.15,2013-09-02 01:30:00,
2013-09-01 18:35:00,69.0,58.8,29.89,West,265,1.0,5.0,70,0.00,,,0.00,Wunderground v.1.15,2013-09-02 01:35:00,
2013-09-01 18:40:00,68.9,58.7,29.89,West,267,1.0,1.0,70,0.00,,,0.00,Wunderground v.1.15,2013-09-02 01:40:00,
2013-09-01 18:45:00,68.7,58.9,29.89,SSW,200,0.0,4.0,71,0.00,,,0.00,Wunderground v.1.15,2013-09-02 01:45:00,
2013-09-01 18:55:00,68.5,59.1,29.89,WSW,254,1.0,4.0,72,0.00,,,0.00,Wunderground v.1.15,2013-09-02 01:55:00,
2013-09-01 19:00:00,68.3,58.9,29.89,WNW,293,1.0,7.0,72,0.00,,,0.00,Wunderground v.1.15,2013-09-02 02:00:00,
2013-09-01 19:05:00,68.3,58.9,29.90,WNW,289,1.0,7.0,72,0.00,,,0.00,Wunderground v.1.15,2013-09-02 02:05:00,
2013-09-01 19:15:00,67.9,58.9,29.90,WNW,300,1.0,7.0,73,0.00,,,0.00,Wunderground v.1.15,2013-09-02 02:15:00,
2013-09-01 19:20:00,67.7,58.7,29.90,SW,223,1.0,1.0,73,0.00,,,0.00,Wunderground v.1.15,2013-09-02 02:20:00,
2013-09-01 19:30:00,67.9,58.5,29.90,WNW,292,0.0,2.0,72,0.00,,,0.00,Wunderground v.1.15,2013-09-02 02:30:00,
2013-09-01 19:35:00,68.0,58.2,29.90,WSW,257,0.0,3.0,71,0.00,,,0.00,Wunderground v.1.15,2013-09-02 02:35:00,
2013-09-01 19:40:00,68.1,57.9,29.90,West,265,1.0,1.0,70,0.00,,,0.00,Wunderground v.1.15,2013-09-02 02:40:00,
2013-09-01 19:50:00,68.3,57.7,29.90,South,176,1.0,1.0,69,0.00,,,0.00,Wunderground v.1.15,2013-09-02 02:50:00,
2013-09-01 20:00:00,68.1,57.9,29.90,NW,309,3.0,3.0,70,0.00,,,0.00,Wunderground v.1.15,2013-09-02 03:00:00,
2013-09-01 20:05:00,67.9,57.8,29.90,NW,319,3.0,6.0,70,0.00,,,0.00,Wunderground v.1.15,2013-09-02 03:05:00,
2013-09-01 20:10:00,67.8,58.1,29.90,NNW,339,2.0,2.0,71,0.00,,,0.00,Wunderground v.1.15,2013-09-02 03:10:00,
2013-09-01 20:20:00,67.4,58.1,29.90,WNW,295,1.0,6.0,72,0.00,,,0.00,Wunderground v.1.15,2013-09-02 03:20:00,
2013-09-01 20:25:00,67.2,58.2,29.90,NNW,341,1.0,6.0,73,0.00,,,0.00,Wunderground v.1.15,2013-09-02 03:25:00,
2013-09-01 20:30:00,67.0,58.1,29.91,West,261,1.0,4.0,73,0.00,,,0.00,Wunderground v.1.15,2013-09-02 03:30:00,
2013-09-01 20:35:00,66.9,58.3,29.91,NNW,329,1.0,4.0,74,0.00,,,0.00,Wunderground v.1.15,2013-09-02 03:35:00,
2013-09-01 20:45:00,66.7,58.1,29.91,SSW,203,1.0,5.0,74,0.00,,,0.00,Wunderground v.1.15,2013-09-02 03:45:00,
2013-09-01 20:50:00,66.5,58.3,29.91,West,265,1.0,5.0,75,0.00,,,0.00,Wunderground v.1.15,2013-09-02 03:50:00,
2013-09-01 20:55:00,66.4,58.6,29.92,WNW,303,1.0,5.0,76,0.00,,,0.00,Wunderground v.1.15,2013-09-02 03:55:00,
2013-09-01 21:05:00,65.9,58.5,29.92,North,351,1.0,6.0,77,0.00,,,0.00,Wunderground v.1.15,2013-09-02 04:05:00,
2013-09-01 21:10:00,65.8,58.4,29.92,West,263,1.0,1.0,77,0.00,,,0.00,Wunderground v.1.15,2013-09-02 04:10:00,
2013-09-01 21:15:00,65.8,58.4,29.92,West,274,0.0,2.0,77,0.00,,,0.00,Wunderground v.1.15,2013-09-02 04:15:00,
2013-09-01 21:20:00,65.8,58.4,29.92,SW,222,0.0,3.0,77,0.00,,,0.00,Wunderground v.1.15,2013-09-02 04:20:00,
2013-09-01 21:25:00,65.8,58.4,29.92,WSW,249,1.0,6.0,77,0.00,,,0.00,Wunderground v.1.15,2013-09-02 04:25:00,
2013-09-01 21:30:00,65.9,58.1,29.92,West,277,0.0,3.0,76,0.00,,,0.00,Wunderground v.1.15,2013-09-02 04:30:00,
2013-09-01 21:35:00,65.9,58.1,29.92,SSW,207,1.0,4.0,76,0.00,,,0.00,Wunderground v.1.15,2013-09-02 04:35:00,
2013-09-01 21:40:00,65.9,58.1,29.92,NW,306,0.0,5.0,76,0.00,,,0.00,Wunderground v.1.15,2013-09-02 04:40:00,
2013-09-01 21:45:00,65.9,58.5,29.92,WSW,252,0.0,5.0,77,0.00,,,0.00,Wunderground v.1.15,2013-09-02 04:45:00,
2013-09-01 21:55:00,65.7,58.3,29.92,WSW,251,0.0,3.0,77,0.00,,,0.00,Wunderground v.1.15,2013-09-02 04:55:00,
2013-09-01 22:00:00,65.5,58.8,29.93,West,264,0.0,3.0,79,0.00,,,0.00,Wunderground v.1.15,2013-09-02 05:00:00,
2013-09-01 22:05:00,65.3,58.6,29.92,West,264,0.0,3.0,79,0.00,,,0.00,Wunderground v.1.15,2013-09-02 05:05:00,
2013-09-01 22:15:00,65.2,58.5,29.93,West,261,0.0,2.0,79,0.00,,,0.00,Wunderground v.1.15,2013-09-02 05:15:00,
2013-09-01 22:20:00,65.1,58.4,29.93,West,261,0.0,1.0,79,0.00,,,0.00,Wunderground v.1.15,2013-09-02 05:20:00,
2013-09-01 22:25:00,65.1,58.4,29.93,West,261,0.0,1.0,79,0.00,,,0.00,Wunderground v.1.15,2013-09-02 05:25:00,
2013-09-01 22:30:00,65.0,58.3,29.93,West,261,0.0,0.0,79,0.00,,,0.00,Wunderground v.1.15,2013-09-02 05:30:00,
2013-09-01 22:40:00,64.8,58.1,29.93,West,272,0.0,1.0,79,0.00,,,0.00,Wunderground v.1.15,2013-09-02 05:40:00,
2013-09-01 22:45:00,64.7,58.0,29.93,West,272,0.0,1.0,79,0.00,,,0.00,Wunderground v.1.15,2013-09-02 05:45:00,
2013-09-01 22:50:00,64.7,58.0,29.93,West,275,0.0,1.0,79,0.00,,,0.00,Wunderground v.1.15,2013-09-02 05:50:00,
2013-09-01 23:00:00,64.5,57.8,29.93,NW,311,0.0,1.0,79,0.00,,,0.00,Wunderground v.1.15,2013-09-02 06:00:00,
2013-09-01 23:05:00,64.3,57.6,29.92,NW,311,0.0,1.0,79,0.00,,,0.00,Wunderground v.1.15,2013-09-02 06:05:00,
2013-09-01 23:10:00,64.1,57.8,29.93,NW,311,0.0,0.0,80,0.00,,,0.00,Wunderground v.1.15,2013-09-02 06:10:00,
2013-09-01 23:15:00,64.0,57.7,29.93,NW,311,0.0,0.0,80,0.00,,,0.00,Wunderground v.1.15,2013-09-02 06:15:00,
2013-09-01 23:20:00,63.9,57.6,29.93,NW,311,0.0,0.0,80,0.00,,,0.00,Wunderground v.1.15,2013-09-02 06:20:00,
2013-09-01 23:30:00,63.7,57.8,29.93,NW,311,0.0,0.0,81,0.00,,,0.00,Wunderground v.1.15,2013-09-02 06:30:00,
2013-09-01 23:35:00,63.6,57.3,29.93,NW,311,0.0,0.0,80,0.00,,,0.00,Wunderground v.1.15,2013-09-02 06:35:00,
2013-09-01 23:40:00,63.5,57.2,29.93,NW,311,0.0,1.0,80,0.00,,,0.00,Wunderground v.1.15,2013-09-02 06:40:00,
2013-09-01 23:45:00,63.5,57.6,29.93,NW,311,0.0,1.0,81,0.00,,,0.00,Wunderground v.1.15,2013-09-02 06:45:00,
2013-09-01 23:50:00,63.5,57.6,29.93,NW,311,0.0,0.0,81,0.00,,,0.00,Wunderground v.1.15,2013-09-02 06:50:00,
2013-09-01 23:55:00,63.4,57.5,29.93,NW,311,0.0,0.0,81,0.00,,,0.00,Wunderground v.1.15,2013-09-02 06:55:00,